Weather History for Cape Cod CGAS, MA

Change the Weather History Date:

Wednesday, November 7, 2012

  Actual Average Record
Temperature  
Mean Temperature 42 °F -  
Max Temperature 47 °F 50 °F 63 °F (2013)
Min Temperature 37 °F 34 °F 24 °F (2002)
Degree Days  
Heating Degree Days 23    
Moisture  
Dew Point 35 °F    
Average Humidity 78    
Maximum Humidity 95    
Minimum Humidity 55    
Precipitation  
Precipitation 0.59 in - - ()
Sea Level Pressure  
Sea Level Pressure 29.83 in    
Wind  
Wind Speed 23 mph (NE)    
Max Wind Speed 44 mph    
Max Gust Speed 58 mph    
Visibility 6 miles    
Events Rain , Snow , Thunderstorm    
Averages and records for this station are not official NWS values.
T = Trace of Precipitation, MM = Missing Value Source: NWS Daily Summary

Daily Weather History Graph

Daily Weather History Graph

Search for Another Location

Airport:

Trip Planner

Search our weather history database for the weather conditions in past years. The results will help you decide how hot, cold, wet, or windy it might be!

Date:

Astronomy

Nov. 07, 2012 Rise Set
Actual Time 6:21 AM EST 4:29 PM EST
Civil Twilight 5:52 AM EST 4:58 PM EST
Nautical Twilight 5:19 AM EST 5:31 PM EST
Astronomical Twilight 4:46 AM EST 6:04 PM EST
Moon No Moon Rise 12:41 PM EST (11/7)
Length of Visible Light 11h 05m
Length of Day
10h 07m
Last Quarter, 43% of the Moon is Illuminated
Nov 7
Last Quarter
Nov 13
New
Nov 20
First Quarter
Nov 28
Full
Dec 6
Last Quarter

Hourly Weather History & Observations

Time (EST) Temp. Windchill Dew Point Humidity Pressure Visibility Wind Dir Wind Speed Gust Speed Precip Events Conditions
12:15 AM 37.4 °F 30.3 °F 32.0 °F 81% 30.12 in 10.0 mi ENE 10.4 mph - N/A   Overcast
12:35 AM 39.2 °F 31.6 °F 32.0 °F 75% 30.10 in 10.0 mi NE 12.7 mph - N/A   Mostly Cloudy
12:55 AM 39.2 °F 31.2 °F 32.0 °F 75% 30.09 in 10.0 mi NE 13.8 mph - N/A   Partly Cloudy
1:15 AM 41.0 °F 33.9 °F 32.0 °F 70% 30.08 in 10.0 mi ENE 12.7 mph 18.4 mph N/A   Clear
1:35 AM 41.0 °F 34.7 °F 32.0 °F 70% 30.08 in 10.0 mi ENE 10.4 mph 20.7 mph N/A   Scattered Clouds
1:55 AM 41.0 °F 34.3 °F 32.0 °F 70% 30.09 in 10.0 mi East 11.5 mph 18.4 mph N/A   Overcast
2:15 AM 41.0 °F 34.3 °F 32.0 °F 70% 30.08 in 10.0 mi ENE 11.5 mph - N/A   Overcast
2:35 AM 42.8 °F 35.8 °F 32.0 °F 66% 30.06 in 10.0 mi ENE 13.8 mph 21.9 mph N/A   Overcast
2:55 AM 42.8 °F 35.4 °F 32.0 °F 66% 30.06 in 10.0 mi ENE 15.0 mph 18.4 mph N/A   Overcast
3:15 AM 42.8 °F 34.0 °F 32.0 °F 66% 30.06 in 10.0 mi ENE 20.7 mph 25.3 mph N/A   Overcast
3:35 AM 42.8 °F 34.8 °F 32.0 °F 66% 30.05 in 10.0 mi ENE 17.3 mph 24.2 mph N/A   Overcast
3:55 AM 42.8 °F 33.1 °F 32.0 °F 66% 30.04 in 10.0 mi ENE 25.3 mph 32.2 mph N/A   Overcast
4:15 AM 42.8 °F 33.5 °F 32.0 °F 66% 30.02 in 10.0 mi NE 23.0 mph 31.1 mph N/A   Overcast
4:35 AM 42.8 °F 33.8 °F 32.0 °F 66% 30.00 in 10.0 mi ENE 21.9 mph 33.4 mph N/A   Mostly Cloudy
4:55 AM 42.8 °F 33.8 °F 32.0 °F 66% 30.00 in 10.0 mi ENE 21.9 mph 32.2 mph N/A   Overcast
5:15 AM 42.8 °F 33.1 °F 32.0 °F 66% 29.99 in 10.0 mi NE 25.3 mph 34.5 mph N/A Thunderstorm Overcast
5:35 AM 42.8 °F 33.5 °F 32.0 °F 66% 29.99 in 10.0 mi ENE 23.0 mph 40.3 mph N/A   Overcast
5:55 AM 44.6 °F 35.7 °F 32.0 °F 61% 29.99 in 10.0 mi NE 24.2 mph 34.5 mph N/A   Overcast
6:15 AM 44.6 °F 35.9 °F 32.0 °F 61% 29.96 in 10.0 mi NE 23.0 mph 35.7 mph N/A   Overcast
6:35 AM 44.6 °F 35.1 °F 33.8 °F 66% 29.96 in 10.0 mi NE 27.6 mph 38.0 mph N/A   Overcast
6:55 AM 44.6 °F 35.5 °F 33.8 °F 66% 29.94 in 10.0 mi NE 25.3 mph 41.4 mph N/A   Overcast
7:15 AM 44.6 °F 35.7 °F 33.8 °F 66% 29.94 in 10.0 mi NE 24.2 mph 38.0 mph N/A   Overcast
7:35 AM 44.6 °F 35.1 °F 35.6 °F 71% 29.93 in 10.0 mi NE 27.6 mph 41.4 mph N/A   Overcast
7:55 AM 44.6 °F 34.6 °F 35.6 °F 71% 29.90 in 10.0 mi NE 31.1 mph 47.2 mph N/A   Overcast
8:15 AM 44.6 °F 35.1 °F 35.6 °F 71% 29.91 in 10.0 mi NE 27.6 mph 49.5 mph N/A   Overcast
8:35 AM 44.6 °F 35.7 °F 35.6 °F 71% 29.90 in 10.0 mi NE 24.2 mph 39.1 mph N/A   Overcast
8:55 AM 44.6 °F 35.1 °F 35.6 °F 71% 29.90 in 10.0 mi NE 27.6 mph 41.4 mph N/A   Overcast
9:15 AM 44.6 °F 35.7 °F 35.6 °F 71% 29.91 in 10.0 mi NE 24.2 mph 35.7 mph N/A   Overcast
9:35 AM 44.6 °F 35.5 °F 35.6 °F 71% 29.90 in 10.0 mi NE 25.3 mph 42.6 mph N/A   Overcast
9:55 AM 44.6 °F 34.7 °F 35.6 °F 71% 29.89 in 10.0 mi NE 29.9 mph 42.6 mph N/A   Overcast
10:15 AM 44.6 °F 34.7 °F 33.8 °F 66% 29.86 in 10.0 mi NE 29.9 mph 44.9 mph N/A   Overcast
10:35 AM 44.6 °F 34.6 °F 33.8 °F 66% 29.85 in 10.0 mi NE 31.1 mph 46.0 mph N/A   Overcast
10:55 AM 44.6 °F 34.6 °F 33.8 °F 66% 29.86 in 10.0 mi NE 31.1 mph 46.0 mph N/A   Overcast
11:15 AM 44.6 °F 34.9 °F 33.8 °F 66% 29.84 in 10.0 mi NE 28.8 mph 48.3 mph N/A   Overcast
11:35 AM 44.6 °F 34.9 °F 32.0 °F 61% 29.84 in 10.0 mi NE 28.8 mph 47.2 mph N/A   Overcast
11:55 AM 44.6 °F 34.7 °F 33.8 °F 66% 29.83 in 9.0 mi NE 29.9 mph 44.9 mph N/A   Overcast
12:15 PM 44.6 °F 34.6 °F 35.6 °F 71% 29.83 in 7.0 mi NE 31.1 mph 41.4 mph N/A Rain Light Rain
12:35 PM 44.6 °F 34.9 °F 32.0 °F 61% 29.82 in 10.0 mi NE 28.8 mph 50.6 mph N/A   Overcast
1:15 PM 41.0 °F 28.5 °F 33.8 °F 76% 29.79 in 2.5 mi NE 39.1 mph 52.9 mph N/A Rain Light Rain
1:35 PM 41.0 °F 27.9 °F 33.8 °F 76% 29.77 in 4.0 mi NE 43.7 mph 56.4 mph 0.02 in Rain Light Rain
1:55 PM 41.0 °F 30.7 °F 35.6 °F 81% 29.76 in 4.0 mi NE 25.3 mph 49.5 mph 0.03 in Rain Light Rain
2:15 PM 41.0 °F 30.5 °F 33.8 °F 76% 29.77 in 6.0 mi NE 26.5 mph 39.1 mph N/A Rain Light Rain
2:35 PM 39.2 °F 27.2 °F 35.6 °F 87% 29.78 in 2.0 mi NE 31.1 mph 49.5 mph 0.01 in Rain Light Rain
2:55 PM 39.2 °F 26.6 °F 35.6 °F 87% 29.77 in 2.0 mi NE 34.5 mph 48.3 mph 0.02 in   Mostly Cloudy
3:15 PM 39.2 °F 27.4 °F 35.6 °F 87% 29.76 in 1.8 mi NE 29.9 mph 49.5 mph 0.01 in   Mostly Cloudy
3:35 PM 37.4 °F 23.3 °F 35.6 °F 93% 29.76 in 1.0 mi NE 40.3 mph 50.6 mph 0.03 in Snow Light Snow
3:55 PM 37.4 °F 24.4 °F 35.6 °F 93% 29.75 in 1.2 mi NE 33.4 mph 43.7 mph 0.07 in   Clear
4:15 PM 37.4 °F 25.6 °F 35.6 °F 93% 29.74 in 3.0 mi NE 26.5 mph 46.0 mph 0.01 in   Scattered Clouds
4:35 PM 39.2 °F 27.0 °F 37.4 °F 93% 29.74 in 3.0 mi NE 32.2 mph 52.9 mph 0.04 in   Mostly Cloudy
4:55 PM 39.2 °F 27.6 °F 37.4 °F 93% 29.74 in 3.0 mi NE 28.8 mph 49.5 mph 0.06 in   Scattered Clouds
5:15 PM 39.2 °F 26.6 °F 37.4 °F 93% 29.72 in 2.5 mi NE 34.5 mph 49.5 mph 0.02 in   Partly Cloudy
5:35 PM 39.2 °F 27.0 °F 37.4 °F 93% 29.70 in 2.5 mi NE 32.2 mph 50.6 mph 0.05 in   Scattered Clouds
5:55 PM 39.2 °F 26.0 °F 35.6 °F 87% 29.70 in 3.0 mi NE 39.1 mph 51.8 mph 0.11 in   Scattered Clouds
6:15 PM 39.2 °F 27.0 °F 37.4 °F 93% 29.72 in 3.0 mi NE 32.2 mph 48.3 mph 0.02 in   Scattered Clouds
6:35 PM 39.2 °F 26.1 °F 37.4 °F 93% 29.70 in 4.0 mi NE 38.0 mph 50.6 mph 0.05 in   Scattered Clouds
6:55 PM 39.2 °F 26.6 °F 37.4 °F 93% 29.69 in 3.0 mi NE 34.5 mph 50.6 mph 0.10 in   Mostly Cloudy
7:15 PM 39.2 °F 25.8 °F 37.4 °F 93% 29.67 in 3.0 mi NE 40.3 mph 55.2 mph 0.03 in   Scattered Clouds
7:35 PM 39.2 °F 26.8 °F 37.4 °F 93% 29.67 in 3.0 mi NE 33.4 mph 51.8 mph 0.07 in   Scattered Clouds
7:55 PM 39.2 °F 27.2 °F 37.4 °F 93% 29.66 in 2.5 mi NE 31.1 mph 46.0 mph 0.11 in   Partly Cloudy
8:15 PM 39.2 °F 26.5 °F 37.4 °F 93% 29.64 in 2.0 mi NE 35.7 mph 49.5 mph 0.04 in   Clear
8:35 PM 39.2 °F 26.8 °F 37.4 °F 93% 29.64 in 2.0 mi NE 33.4 mph 48.3 mph 0.11 in   Clear
8:55 PM 39.2 °F 26.0 °F 37.4 °F 93% 29.63 in 2.0 mi NE 39.1 mph 57.5 mph 0.15 in   Scattered Clouds
9:15 PM 39.2 °F 26.5 °F 37.4 °F 93% 29.62 in 3.0 mi NE 35.7 mph 51.8 mph 0.03 in   Scattered Clouds
9:35 PM 39.2 °F 27.4 °F 37.4 °F 93% 29.61 in 3.0 mi NNE 29.9 mph 52.9 mph 0.07 in   Partly Cloudy
9:55 PM 41.0 °F 30.0 °F 37.4 °F 87% 29.61 in 2.0 mi NNE 28.8 mph 56.4 mph 0.13 in   Clear
10:15 PM 41.0 °F 30.0 °F 39.2 °F 93% 29.60 in 2.0 mi NNE 28.8 mph 50.6 mph 0.17 in   Clear
10:35 PM 41.0 °F 29.7 °F 39.2 °F 93% 29.60 in 2.0 mi NE 31.1 mph 43.7 mph 0.28 in   Scattered Clouds
10:55 PM 41.0 °F 29.5 °F 39.2 °F 93% 29.59 in 1.8 mi NNE 32.2 mph 49.5 mph 0.37 in   Scattered Clouds
11:15 PM 41.0 °F 30.2 °F 39.2 °F 93% 29.58 in 1.8 mi NNE 27.6 mph 50.6 mph 0.07 in   Scattered Clouds
11:35 PM 41.0 °F 28.6 °F 39.2 °F 93% 29.58 in 2.0 mi NE 38.0 mph 48.3 mph 0.14 in   Scattered Clouds
11:55 PM 41.0 °F 28.8 °F 39.2 °F 93% 29.57 in 2.5 mi NE 36.8 mph 50.6 mph 0.33 in   Clear